TimeCET,TemperatureF,Dew PointF,Humidity,Sea Level PressureIn,VisibilityMPH,Wind Direction,Wind SpeedMPH,Gust SpeedMPH,PrecipitationIn,Events,Conditions,WindDirDegrees,DateUTC
12:00 AM,48.2,44.6,87,29.95,6.2,South,4.6,-,N/A,,Unknown,170,2012-11-24 23:00:00
12:30 AM,48.2,44.6,87,29.95,6.2,SSE,6.9,-,N/A,,Unknown,160,2012-11-24 23:30:00
1:00 AM,50,43,70,29.96,11,South,8.1,,,,Clear,170,2012-11-25 00:00:00
1:00 AM,50.0,42.8,76,29.95,6.2,South,8.1,-,N/A,,Unknown,170,2012-11-25 00:00:00
1:30 AM,51.8,42.8,71,29.95,6.2,South,10.4,-,N/A,,Unknown,180,2012-11-25 00:30:00
2:00 AM,50.0,42.8,76,29.95,6.2,South,8.1,-,N/A,,Unknown,170,2012-11-25 01:00:00
2:30 AM,46.4,41.0,81,29.95,6.2,Variable,3.5,-,N/A,,Unknown,0,2012-11-25 01:30:00
3:00 AM,50.0,42.8,76,29.95,6.2,Variable,1.2,-,N/A,,Unknown,0,2012-11-25 02:00:00
3:30 AM,50.0,42.8,76,29.95,6.2,Variable,2.3,-,N/A,,Unknown,0,2012-11-25 02:30:00
4:00 AM,50.0,42.8,76,29.95,6.2,South,8.1,-,N/A,,Unknown,190,2012-11-25 03:00:00
4:30 AM,50.0,42.8,76,29.95,6.2,SSW,9.2,-,N/A,,Mostly Cloudy,200,2012-11-25 03:30:00
5:00 AM,53.6,44.6,72,29.95,6.2,South,10.4,-,N/A,,Mostly Cloudy,180,2012-11-25 04:00:00
5:30 AM,53.6,44.6,72,29.95,6.2,South,10.4,-,N/A,,Scattered Clouds,170,2012-11-25 04:30:00
6:00 AM,53.6,44.6,72,29.95,6.2,South,10.4,-,N/A,,Mostly Cloudy,170,2012-11-25 05:00:00
6:30 AM,53.6,44.6,72,29.95,6.2,South,12.7,-,N/A,,Scattered Clouds,170,2012-11-25 05:30:00
7:00 AM,53,45,67,29.96,34,South,11.5,,,,Clear,180,2012-11-25 06:00:00
7:00 AM,53.6,44.6,72,29.95,6.2,South,11.5,-,N/A,,Partly Cloudy,180,2012-11-25 06:00:00
7:30 AM,53.6,44.6,72,29.95,6.2,South,11.5,-,N/A,,Partly Cloudy,180,2012-11-25 06:30:00
8:00 AM,55.4,44.6,67,29.95,6.2,South,10.4,-,N/A,,Partly Cloudy,190,2012-11-25 07:00:00
8:30 AM,55.4,46.4,72,29.95,6.2,South,8.1,-,N/A,,Scattered Clouds,180,2012-11-25 07:30:00
9:00 AM,55.4,46.4,72,29.98,6.2,South,10.4,-,N/A,,Mostly Cloudy,190,2012-11-25 08:00:00
9:30 AM,57.2,48.2,72,29.98,6.2,SW,12.7,-,N/A,,Mostly Cloudy,220,2012-11-25 08:30:00
10:00 AM,59.0,46.4,63,29.98,6.2,WSW,20.7,34.5,N/A,,Mostly Cloudy,240,2012-11-25 09:00:00
10:30 AM,59.0,44.6,59,30.01,6.2,WSW,18.4,-,N/A,,Mostly Cloudy,250,2012-11-25 09:30:00
11:00 AM,60.8,44.6,55,30.01,6.2,WSW,12.7,-,N/A,,Mostly Cloudy,250,2012-11-25 10:00:00
11:30 AM,60.8,42.8,52,30.01,6.2,WSW,9.2,-,N/A,,Overcast,250,2012-11-25 10:30:00
12:00 PM,59.0,41.0,51,30.01,6.2,WSW,18.4,31.1,N/A,,Overcast,250,2012-11-25 11:00:00
12:30 PM,57.2,39.2,51,30.01,6.2,WSW,19.6,-,N/A,,Overcast,240,2012-11-25 11:30:00
1:00 PM,57,37,35,30.04,34,WSW,20.7,,,,Clear,240,2012-11-25 12:00:00
1:00 PM,57.2,37.4,48,30.04,6.2,WSW,20.7,-,N/A,,Overcast,240,2012-11-25 12:00:00
1:30 PM,55.4,37.4,51,30.04,6.2,WSW,16.1,-,N/A,,Overcast,240,2012-11-25 12:30:00
2:00 PM,55.4,37.4,51,30.04,6.2,WSW,13.8,-,N/A,,Overcast,250,2012-11-25 13:00:00
2:30 PM,55.4,37.4,51,30.04,6.2,WSW,13.8,-,N/A,,Overcast,240,2012-11-25 13:30:00
3:00 PM,55.4,37.4,51,30.04,6.2,SW,9.2,-,N/A,,Overcast,230,2012-11-25 14:00:00
3:30 PM,55.4,37.4,51,30.04,6.2,WSW,6.9,-,N/A,,Mostly Cloudy,250,2012-11-25 14:30:00
4:00 PM,53.6,37.4,54,30.04,6.2,SW,5.8,-,N/A,,Mostly Cloudy,220,2012-11-25 15:00:00
4:30 PM,51.8,39.2,62,30.04,6.2,SSW,4.6,-,N/A,,Overcast,200,2012-11-25 15:30:00
5:00 PM,50.0,39.2,66,30.04,6.2,SSW,5.8,-,N/A,,Overcast,210,2012-11-25 16:00:00
5:30 PM,50.0,39.2,66,30.04,6.2,SW,6.9,-,N/A,,Overcast,230,2012-11-25 16:30:00
6:00 PM,46.4,39.2,76,30.04,6.2,South,4.6,-,N/A,,Unknown,190,2012-11-25 17:00:00
6:30 PM,46.4,37.4,71,30.04,6.2,ENE,2.3,-,N/A,,Unknown,60,2012-11-25 17:30:00
7:00 PM,46,38,65,30.06,31,Calm,Calm,,,,Clear,,2012-11-25 18:00:00
7:00 PM,46.4,37.4,71,30.04,6.2,Calm,Calm,-,N/A,,Unknown,0,2012-11-25 18:00:00
7:30 PM,44.6,37.4,76,30.04,6.2,Variable,1.2,-,N/A,,Unknown,0,2012-11-25 18:30:00
8:00 PM,42.8,39.2,87,30.04,6.2,Variable,2.3,-,N/A,,Unknown,0,2012-11-25 19:00:00
8:30 PM,42.8,37.4,81,30.04,6.2,Variable,2.3,-,N/A,,Partly Cloudy,0,2012-11-25 19:30:00
9:00 PM,39.2,37.4,93,30.04,6.2,ESE,3.5,-,N/A,,Unknown,120,2012-11-25 20:00:00
9:30 PM,41.0,37.4,87,30.01,6.2,Calm,Calm,-,N/A,,Unknown,0,2012-11-25 20:30:00
10:00 PM,39.2,35.6,87,30.01,6.2,Variable,2.3,-,N/A,,Unknown,0,2012-11-25 21:00:00
10:30 PM,37.4,35.6,93,30.01,6.2,Calm,Calm,-,N/A,,Partly Cloudy,0,2012-11-25 21:30:00
11:00 PM,37.4,35.6,93,30.01,6.2,WSW,3.5,-,N/A,,Partly Cloudy,250,2012-11-25 22:00:00
11:30 PM,35.6,33.8,93,29.98,6.2,Calm,Calm,-,N/A,,Mostly Cloudy,0,2012-11-25 22:30:00